Regional Weather Roundup
Issued by NWS

Home | Current Version | Previous Version | Graphics & Text | Print | Product List | Glossary On
Versions: 1 2 3 4 5 6 7 8 9 10 11 12 13 14 15 16 17 18 19 20 21 22 23 24 25 26 27
000
ASUS45 KTFX 202010
RWRMT
MONTANA REGIONAL WEATHER ROUNDUP
NATIONAL WEATHER SERVICE GREAT FALLS MT
100 PM MST MON FEB 20 2017

NOTE: "FAIR" INDICATES FEW OR NO CLOUDS BELOW 12000 FEET WITH NO
SIGNIFICANT WEATHER AND/OR OBSTRUCTIONS TO VISIBILITY.

MTZ001>007-043-202100-
WEST OF THE DIVIDE

CITY           SKY/WX    TMP DP  RH WIND       PRES   REMARKS
KALISPELL      LGT SNOW  35  32  88 CALM      29.58F FOG
MISSOULA       CLOUDY    39  34  82 E12       29.59F WCI  32
BUTTE          CLOUDY    38  29  70 SE9G16    29.64F WCI  31
MULLAN PASS    SNOW      30  30 100 S8G22     29.51S VSB 1/2 WCI  22
ANACONDA         N/A     37  32  81 SE7       29.65F
DEER LODGE       N/A     39  34  81 S15G23    29.64S WCI  31
EUREKA           N/A     37  32  81 W6        29.56F
HAMILTON         N/A     43  36  75 S9        29.58F
LIBBY            N/A     34  34 100 CALM      29.56F
RONAN            N/A     35  32  89 CALM      29.66F
$$

MTZ008-052>055-202100-
SOUTHWEST MONTANA

CITY           SKY/WX    TMP DP  RH WIND       PRES   REMARKS
BOZEMAN        CLOUDY    44  27  51 CALM      29.66F
DILLON         CLOUDY    46  29  51 S20G29    29.65F
W YELLOWSTONE  LGT SNOW  32  32 100 SW17G30   29.83F VSB 3/4 WCI  21
ENNIS          PTSUNNY   46  28  49 S35G43    29.74F
THREE FORKS      N/A     48  48 100 S28       29.69F
TWIN BRIDGES     N/A     44  27  51 SE5       29.70F
$$

MTZ009-010-012-014-046-048-049-054-202100-
EAST SLOPES AND CENTRAL MONTANA

CITY           SKY/WX    TMP DP  RH WIND       PRES   REMARKS
CUT BANK       PTSUNNY   43  26  51 SE8       29.54F
GREAT FALLS    MOSUNNY   51  23  33 SW10      29.56F
MALMSTROM AFB  MOSUNNY   53  25  34 SW16G25   29.56F
HELENA         CLOUDY    47  32  56 VRB3      29.60F
AUGUSTA        PTSUNNY   46  28  49 SW21G37   29.53F
BOWMANS CRNR   PTSUNNY   47  28  46 SW17G23   29.54F
CHOTEAU          N/A     48  27  43 SE13      29.55F
POWER            N/A     48  25  40 S16       29.55F
RAYNESFORD     PTSUNNY   55  25  32 SW14G22   29.57F
ULM              N/A     54  24  31 MISG      29.56F
$$

MTZ011-013-016-021-045-047-050-051-202100-
NORTH CENTRAL MONTANA

CITY           SKY/WX    TMP DP  RH WIND       PRES   REMARKS
HAVRE          CLOUDY    48  26  42 SW6       29.61F
LEWISTOWN      SUNNY     53  26  35 SW21G29   29.63F
N BAR RANCH      N/A     48  21  34 S21G26    29.68F
CHINOOK          N/A     48  25  40 E3        29.62F
DENTON           N/A     53  23  31 S24       29.56F
FORT BENTON      N/A     52  21  30 N5        29.59F
GEYSER         PTSUNNY   51  23  34 W10G21    29.58F
GRASS RANGE      N/A     52  24  34 SW15      29.60F
JUDITH GAP       N/A     45  25  46 SE24      29.64F
ROY            PTSUNNY   50  25  37 MISG      29.61F
STANFORD       PTSUNNY   53  24  31 SW17G36   29.62F
WINIFRED         N/A     54  23  29 SW16G25   29.60F
$$

MTZ017>020-022>027-061-062-202100-
NORTHEAST MONTANA

CITY           SKY/WX    TMP DP  RH WIND       PRES   REMARKS
GLASGOW        SUNNY     50  24  36 W7        29.67F
JORDAN           N/A     55  23  28 SW12      29.69F
SIDNEY         SUNNY     53  24  32 W13       29.70F
WOLF POINT     SUNNY     44  31  60 SW5       29.70F
PLENTYWOOD       N/A     48  28  46 W13       29.66F
POPLAR           N/A     43  30  61 W3        29.71F
$$

MTZ028>42-056>058-202100-
SOUTHCENTRAL AND SOUTHEAST MONTANA

CITY           SKY/WX    TMP DP  RH WIND       PRES   REMARKS
BAKER          SUNNY     52  25  35 NW12      29.75F
BILLINGS       PTSUNNY   56  22  26 SW21G31   29.67F
LIVINGSTON     CLOUDY    49  28  44 SW37G43   29.66F
MILES CITY     SUNNY     56  22  26 SW9       29.74F
BIG TIMBER     PTSUNNY   45  23  42 CALM      29.70F
FORSYTH          N/A     55  25  30 S12G17    29.73S
HARLOWTON      PTSUNNY   50  26  40 SW10      29.65F
LAUREL           N/A     54  21  27 S13       29.70F
$$

REGIONAL REPORTS...DAKOTAS

CITY           SKY/WX    TMP DP  RH WIND       PRES   REMARKS
WILLISTON      SUNNY     45  32  60 W12       29.69F
MINOT          SUNNY     50  36  58 W12       29.66F
DICKINSON      SUNNY     52  26  36 NW15      29.71F
BEACH            N/A    N/A N/A N/A MISG        N/A
CROSBY           N/A     43  39  87 SW12      29.68F
TIOGA            N/A     41  41 100 W10       29.69F
WATFORD CITY     N/A     46  34  61 W10       29.70F
BISMARCK       SUNNY     48  37  65 NW10      29.72S
GRAND FORKS    LGT RAIN  37  33  85 NW12      29.60R WCI  29
FARGO          CLOUDY    41  39  93 W13       29.61S
BUFFALO SD       N/A     57  21  24 W18       29.70F
RAPID CITY     SUNNY     61  17  18 VRB3      29.81F
$$

REGIONAL REPORTS...WYOMING/IDAHO/WASHINGTON

CITY           SKY/WX    TMP DP  RH WIND       PRES   REMARKS
GILLETTE       SUNNY     55  21  26 SW20G29   29.82F
SHERIDAN       CLOUDY    53  25  33 SE22      29.75F
BUFFALO WY     CLOUDY    58  20  22 SW15G22   29.79F
CODY           CLOUDY    51  26  37 SW17G25   29.78F
YELLOWSTONE LA   N/A     31  30  96 VRB5      29.88F
IDAHO FALLS    LGT RAIN  41  37  86 S21G28    29.92S
SALMON         CLOUDY    39  34  81 CALM      29.67F
BOISE          CLOUDY    54  39  57 S16G24    29.77S
SPOKANE        PTSUNNY   37  34  89 NE6       29.50F FOG
$$

REGIONAL REPORTS...ALBERTA

CITY           SKY/WX    TMP DP  RH WIND       PRES   REMARKS
EDMONTON       CLOUDY    30  25  80 N2        29.58F
CALGARY        PTSUNNY   30  28  93 E3        29.51F FOG
LETHBRIDGE     PTSUNNY   46  25  42 S12       29.53F
MEDICINE HAT   PTSUNNY   48  27  43 S16       29.57F
WATERTON GATE    N/A     41  25  52 SW13        N/A
CARDSTON         N/A     48  23  37 S7          N/A
MILK RIVER       N/A     43  27  52 S14         N/A
ONEFOUR          N/A     45  23  42 SW9         N/A
$$

REGIONAL REPORTS...SASKATCHEWAN

CITY           SKY/WX    TMP DP  RH WIND       PRES   REMARKS
SWIFT CURRENT  SUNNY     45  27  49 W13G18    29.58F
REGINA         MOSUNNY   41  36  81 W8        29.63F
SASKATOON      CLOUDY    36  30  80 W8        29.63R WCI  29
CYPRESS HILLS    N/A     39  19  45 SW8         N/A
VAL MARIE        N/A     46  25  42 SW12        N/A
ROCKGLEN         N/A     43  28  56 W15         N/A
ASSINIBOIA       N/A     34  28  80 N5          N/A
$$




USA.gov is the U.S. government's official web portal to all federal, state and local government web resources and services.